Weather reports worldwide

Advertisment
Cardiff, Bute Park, United Kingdom (99160): temperature & dewpoint: 04.07.2020 03:00:00 - 10.07.2020 03:00:00 (BST)Cardiff, Bute Park, United Kingdom (99160): temperature -20cm & temperature -100cm: 04.07.2020 03:00:00 - 10.07.2020 03:00:00 (BST)Cardiff, Bute Park, United Kingdom (99160): precipitation: 04.07.2020 03:00:00 - 10.07.2020 03:00:00 (BST)
Date & Time tt [°C] td [°C] tt -20cm [°C] tt -100cm [°C] rr [mm]
10.07.2020 03:00:00 11,1 10,3 - - 0,0
10.07.2020 02:00:00 12,6 11,2 - - 0,0
10.07.2020 01:00:00 14,0 11,8 - - 0,0
10.07.2020 00:00:00 14,2 11,9 - - 0,0
09.07.2020 23:00:00 14,4 12,3 - - 0,0
09.07.2020 22:00:00 15,8 12,0 - - 0,0
09.07.2020 21:00:00 15,8 13,4 - - 0,0
09.07.2020 20:00:00 17,9 14,2 - - 0,0
09.07.2020 19:00:00 17,9 15,4 - - 0,0
09.07.2020 18:00:00 17,2 15,2 - - 0,0
09.07.2020 17:00:00 17,0 14,8 - - 0,0
09.07.2020 16:00:00 18,3 15,7 - - 0,0
09.07.2020 15:00:00 18,6 15,4 - - 0,0
09.07.2020 14:00:00 18,6 15,7 - - 0,0
09.07.2020 13:00:00 17,7 15,1 - - 0,0
09.07.2020 12:00:00 18,0 15,9 - - 0,0
09.07.2020 11:00:00 17,1 15,9 - - 0,0
09.07.2020 10:00:00 16,6 15,9 17,7 16,5 0,2
09.07.2020 09:00:00 16,2 15,7 - - 0,4
09.07.2020 08:00:00 15,9 15,5 - - 1,0
09.07.2020 07:00:00 15,6 15,2 - - 0,4
09.07.2020 06:00:00 15,4 14,9 - - 0,4
09.07.2020 05:00:00 15,3 14,8 - - 0,6
09.07.2020 04:00:00 15,3 14,7 - - 1,0
09.07.2020 03:00:00 15,4 14,8 - - 1,8
09.07.2020 02:00:00 15,8 14,5 - - 0,4
09.07.2020 01:00:00 16,3 14,5 - - 0,0
09.07.2020 00:00:00 16,1 14,9 - - 0,0
08.07.2020 23:00:00 15,9 15,0 - - 0,0
08.07.2020 22:00:00 15,7 15,0 - - 0,0
08.07.2020 21:00:00 15,6 15,0 - - 0,0
08.07.2020 20:00:00 15,7 15,0 - - 0,2
08.07.2020 19:00:00 16,2 15,0 - - 0,0
08.07.2020 18:00:00 16,5 15,1 - - 0,0
08.07.2020 17:00:00 16,7 15,0 - - 0,0
08.07.2020 16:00:00 17,2 15,0 - - 0,0
08.07.2020 15:00:00 17,8 14,6 - - 0,0
08.07.2020 14:00:00 17,7 14,8 - - 0,0
08.07.2020 13:00:00 17,5 15,1 - - 0,0
08.07.2020 12:00:00 17,3 15,1 - - 0,0
08.07.2020 11:00:00 17,3 15,1 - - 0,0
08.07.2020 10:00:00 16,2 15,4 17,7 16,5 0,0
08.07.2020 09:00:00 15,6 15,1 - - 0,0
08.07.2020 08:00:00 15,3 14,9 - - 0,2
08.07.2020 07:00:00 15,1 14,8 - - 0,0
08.07.2020 06:00:00 15,1 14,7 - - 0,6
08.07.2020 05:00:00 15,2 14,8 - - 0,6
08.07.2020 04:00:00 15,2 14,8 - - 1,0
08.07.2020 03:00:00 15,2 14,8 - - 0,6
08.07.2020 02:00:00 15,1 14,7 - - 1,2
08.07.2020 01:00:00 15,1 14,7 - - 1,0
08.07.2020 00:00:00 15,0 14,5 - - 1,4
07.07.2020 23:00:00 14,8 14,3 - - 2,2
07.07.2020 22:00:00 14,6 14,1 - - 0,6
07.07.2020 21:00:00 14,6 14,0 - - 1,0
07.07.2020 20:00:00 14,5 13,8 - - 0,8
07.07.2020 19:00:00 14,5 13,6 - - 0,4
07.07.2020 18:00:00 14,7 13,4 - - 0,0
07.07.2020 17:00:00 15,9 10,6 - - 0,0
07.07.2020 16:00:00 17,4 10,7 - - 0,0
07.07.2020 15:00:00 16,7 10,1 - - 0,0
07.07.2020 14:00:00 17,1 10,3 - - 0,0
07.07.2020 13:00:00 16,4 10,4 - - 0,0
07.07.2020 12:00:00 16,8 10,1 - - 0,0
07.07.2020 11:00:00 16,3 10,2 - - 0,0
07.07.2020 10:00:00 16,7 11,3 17,7 16,7 0,0
07.07.2020 09:00:00 15,7 11,0 - - 0,0
07.07.2020 08:00:00 16,6 11,9 - - 0,0
07.07.2020 07:00:00 14,4 12,2 - - 0,0
07.07.2020 06:00:00 13,3 11,5 - - 0,0
07.07.2020 05:00:00 12,9 11,3 - - 0,0
07.07.2020 04:00:00 13,4 11,4 - - 0,0
07.07.2020 03:00:00 13,4 11,6 - - 0,0
07.07.2020 02:00:00 13,6 11,8 - - 0,0
07.07.2020 01:00:00 12,5 11,1 - - 0,0
07.07.2020 00:00:00 12,5 10,4 - - 0,0
06.07.2020 23:00:00 13,5 9,4 - - 0,0
06.07.2020 22:00:00 14,5 8,3 - - 0,0
06.07.2020 21:00:00 16,1 7,6 - - 0,0
06.07.2020 20:00:00 17,0 7,6 - - 0,0
06.07.2020 19:00:00 17,9 7,2 - - 0,0
06.07.2020 18:00:00 19,0 7,2 - - 0,0
06.07.2020 17:00:00 19,8 7,5 - - 0,0
06.07.2020 16:00:00 19,4 8,4 - - 0,0
06.07.2020 15:00:00 18,2 9,3 - - 0,0
06.07.2020 14:00:00 17,9 10,3 - - 0,0
06.07.2020 13:00:00 17,0 8,5 - - 0,0
06.07.2020 12:00:00 16,7 9,6 - - 0,0
06.07.2020 11:00:00 16,2 8,8 - - 0,0
06.07.2020 10:00:00 15,2 8,6 17,7 16,7 0,0
06.07.2020 09:00:00 15,3 9,6 - - 0,0
06.07.2020 08:00:00 13,6 9,1 - - 0,0
06.07.2020 07:00:00 12,2 8,7 - - 0,0
06.07.2020 06:00:00 12,0 8,8 - - 0,0
06.07.2020 05:00:00 12,5 8,8 - - 0,0
06.07.2020 04:00:00 12,9 9,1 - - 0,0
06.07.2020 03:00:00 12,9 9,0 - - 0,0
06.07.2020 02:00:00 13,4 9,5 - - 0,0
06.07.2020 01:00:00 13,8 9,7 - - 0,0
06.07.2020 00:00:00 13,9 9,4 - - 0,0
05.07.2020 23:00:00 14,0 9,8 - - 0,0
05.07.2020 22:00:00 14,2 9,8 - - 0,0
05.07.2020 21:00:00 14,4 9,8 - - 0,0
05.07.2020 20:00:00 14,9 9,5 - - 0,0
05.07.2020 19:00:00 15,5 9,4 - - 0,0
05.07.2020 18:00:00 16,0 9,2 - - 0,0
05.07.2020 17:00:00 16,5 9,5 - - 0,0
05.07.2020 16:00:00 16,5 9,2 - - 0,0
05.07.2020 15:00:00 16,8 9,8 - - 0,0
05.07.2020 14:00:00 16,3 9,5 - - 0,0
05.07.2020 13:00:00 17,3 9,9 - - 0,0
05.07.2020 12:00:00 16,7 8,9 - - 0,0
05.07.2020 11:00:00 16,9 10,1 - - 0,0
05.07.2020 10:00:00 16,3 9,9 17,7 16,5 0,0
05.07.2020 09:00:00 15,7 9,7 - - 0,0
05.07.2020 08:00:00 14,8 12,4 - - 0,0
05.07.2020 07:00:00 14,8 12,7 - - 0,0
05.07.2020 06:00:00 14,6 12,6 - - 0,0
05.07.2020 05:00:00 15,6 14,6 - - 0,2
05.07.2020 04:00:00 15,8 15,2 - - 0,4
05.07.2020 03:00:00 16,0 15,4 - - 0,4
05.07.2020 02:00:00 16,1 15,4 - - 0,4
05.07.2020 01:00:00 16,5 15,7 - - 0,4
05.07.2020 00:00:00 16,1 14,8 - - 0,0
04.07.2020 23:00:00 15,7 14,7 - - 0,0
04.07.2020 22:00:00 15,4 14,7 - - 0,0
04.07.2020 21:00:00 15,5 14,6 - - 0,0
04.07.2020 20:00:00 15,8 15,1 - - 0,0
04.07.2020 19:00:00 15,9 15,3 - - 0,0
04.07.2020 18:00:00 16,0 15,5 - - 0,2
04.07.2020 17:00:00 16,4 15,7 - - 0,2
04.07.2020 16:00:00 16,7 15,6 - - 0,2
04.07.2020 15:00:00 17,4 16,5 - - 0,4
04.07.2020 14:00:00 16,9 16,0 - - 1,0
04.07.2020 13:00:00 17,0 15,6 - - 0,2
04.07.2020 12:00:00 17,4 15,2 - - 0,0
04.07.2020 11:00:00 16,7 15,0 - - 0,0
04.07.2020 10:00:00 16,1 14,6 17,7 16,5 0,0
04.07.2020 09:00:00 15,7 14,6 - - 0,0
04.07.2020 08:00:00 15,5 14,8 - - 0,0
04.07.2020 07:00:00 15,5 15,1 - - 0,2
04.07.2020 06:00:00 15,5 15,0 - - 0,4
04.07.2020 05:00:00 15,7 15,3 - - 0,8
04.07.2020 04:00:00 15,9 15,4 - - 1,0
04.07.2020 03:00:00 15,9 15,5 - - 1,2

tt = temperature
td = dewpoint
tt -20cm = temperature -20cm
tt -100cm = temperature -100cm
rr = precipitation

Next stations